Regional Weather Roundup
Issued by NWS

Home | Current Version | Previous Version | Graphics & Text | Print | Product List | Glossary On
Versions: 1 2 3 4 5 6 7 8 9 10 11 12 13 14 15 16 17 18 19 20 21 22 23 24 25 26 27 28 29 30 31 32 33 34 35 36 37 38 39 40 41 42 43 44 45 46 47 48 49 50
622
ASUS43 KMKX 231900
RWRWI

WISCONSIN REGIONAL WEATHER ROUNDUP
NATIONAL WEATHER SERVICE MILWAUKEE/SULLIVAN WI
200 PM CDT MON OCT 23 2017

NOTE: "FAIR" INDICATES FEW OR NO CLOUDS BELOW 12,000 FEET WITH NO
SIGNIFICANT WEATHER AND/OR OBSTRUCTIONS TO VISIBILITY.

WIZ001-002-006>008-014>016-023>028-232000-
NORTHWEST WISCONSIN

CITY           SKY/WX    TMP DP  RH WIND       PRES   REMARKS
SUPERIOR ARPT  SUNNY     62  44  50 W12G17    29.67F
ASHLAND        MOSUNNY   62  41  46 W12       29.68S
HAYWARD        SUNNY     59  39  47 VRB6      29.70F
SIREN          MOSUNNY   60  40  48 W13       29.72S
CUMBERLAND     MOSUNNY   57  41  54 W13       29.71S
RICE LAKE      MOSUNNY   57  41  55 W9        29.73S
CHETEK         MOSUNNY   56  42  61 W3        29.72S
LADYSMITH      MOSUNNY   58  43  55 W6        29.72S
EAU CLAIRE     CLOUDY    55  42  61 W8        29.72S
MENOMONIE      CLOUDY    55  43  62 W12       29.73S
NEW RICHMOND   PTSUNNY   59  38  45 W16       29.74S
OSCEOLA        MOSUNNY   60  39  45 W14       29.77S
$$

WIZ003>005-009-010-017-018-232000-
NORTH CENTRAL WISCONSIN

CITY           SKY/WX    TMP DP  RH WIND       PRES   REMARKS
MANITOWISH WTR MOSUNNY   55  41  60 SE3       29.69F
ARBOR VITAE    MOSUNNY   56  42  61 S6        29.70F
WOODRUFF       MOSUNNY   56  42  61 S6        29.70F
RHINELANDER    CLOUDY    55  39  54 SW10      29.72F
EAGLE RIVER    CLOUDY    56  35  46 S7        29.71F
LAND O LAKES   CLOUDY    58  36  44 S9        29.71F
PHILLIPS       MOSUNNY   56  40  56 SW5       29.70R
TOMAHAWK       MOSUNNY   55  39  54 S3        29.72S
MEDFORD        CLOUDY    52  40  64 S6        29.72S
MERRILL        MOSUNNY   55  41  61 S7        29.73S
$$

WIZ029-030-035-036-043>047-232000-
CENTRAL WISCONSIN

CITY           SKY/WX    TMP DP  RH WIND       PRES   REMARKS
WAUSAU         CLOUDY    54  41  61 S7        29.70F
MOSINEE        PTSUNNY   54  43  66 S7        29.73F
MARSHFIELD     CLOUDY    55  40  56 SW3       29.70F
STEVENS POINT  MOSUNNY   53  39  58 SE7       29.73F
WAUPACA        CLOUDY    53  52  94 S3        29.76F
WAUTOMA        CLOUDY   N/A N/A N/A S6        29.73F
WISC RAPIDS    CLOUDY    57  43  59 W9        29.72F
CAMP DOUGLAS   NOT AVBL
$$

WIZ011>013-019>022-031-037>040-048>050-232000-
NORTHEAST WISCONSIN

CITY           SKY/WX    TMP DP  RH WIND       PRES   REMARKS
ANTIGO         CLOUDY    51  40  64 S12       29.75F
SHAWANO        CLOUDY    54  46  75 CALM      29.75F
OCONTO         CLOUDY    51  45  80 CALM      29.76F
STURGEON BAY   CLOUDY    53  44  71 NE5       29.75F
GREEN BAY      CLOUDY    53  48  83 S3        29.74F
MANITOWOC      CLOUDY    53  42  66 CALM      29.74F
APPLETON       PTSUNNY   54  43  66 S6        29.73F
CLINTONVILLE   CLOUDY    52  45  76 S3        29.76F
OSHKOSH        CLOUDY    53  43  68 S5        29.73F
$$

WIZ032>034-041-042-053>061-232000-
SOUTHWEST WISCONSIN

CITY           SKY/WX    TMP DP  RH WIND       PRES   REMARKS
LA CROSSE      CLOUDY    58  44  60 N5        29.74F
SPARTA         PTSUNNY   56  42  59 SW7       29.75S
VIROQUA        MOSUNNY   56  44  64 W10       29.76S
BOSCOBEL       MOSUNNY   59  44  57 SW9       29.74F
PRAIRIE DU CHI CLOUDY    58  40  51 W5        29.76F
PLATTEVILLE    MOSUNNY   58  46  64 SW9       29.74F
$$

WIZ056-057-062-063-064-067-068-232000-
SOUTH CENTRAL WISCONSIN

CITY           SKY/WX    TMP DP  RH WIND       PRES   REMARKS
REEDSBURG      CLOUDY    56  44  63 SW5       29.71F
BARABOO/DELLS  CLOUDY    56  41  58 SW5       29.74F
LONE ROCK      CLOUDY    60  46  59 W9        29.72F
MINERAL POINT  MOSUNNY   59  46  63 SW3       29.73F
MADISON        CLOUDY    55  43  63 S5        29.73F
MIDDLETON      PTSUNNY   57  40  52 S5        29.75F
WATERTOWN      CLOUDY    51  46  82 CALM      29.74F
MONROE         CLOUDY    55  37  50 S3        29.74F
JANESVILLE     CLOUDY    54  45  71 CALM      29.74F
$$

WIZ051-052-058>065-066-070>072-232000-
SOUTHEAST WISCONSIN

CITY           SKY/WX    TMP DP  RH WIND       PRES   REMARKS
MILWAUKEE      CLOUDY    54  49  83 NW5       29.74F
WAUKESHA       SUNNY     50  45  81 W6        29.75F
MILWAUKEE/TIMM SUNNY     52  45  76 NW3       29.75F
RACINE         CLOUDY    52  50  93 NW6       29.74F
BURLINGTON     CLOUDY    51  50  98 NW6       29.75F
KENOSHA        CLOUDY    52  48  86 NW9       29.73F
FOND DU LAC    PTSUNNY   54  41  61 SW3       29.73F
SHEBOYGAN      PTSUNNY   53  47  79 CALM      29.73F
WEST BEND      CLOUDY    52  45  76 NW3       29.75F
JUNEAU         CLOUDY    51  44  77 CALM      29.75F
$$

LSZ147-162-232000-
LAKE SUPERIOR

STATION/POSITION TIME  TEMP    WIND        PRES    WAVE
                       AIR SEA DIR/SP/G            HT/PER
                 (UTC) (F)     (DEG/KT/KT) (MB)    (FT/S)
W MID LAKE BUOY  1750   53 51              1005.1F   3/ 5
DEVILS ISLAND    1800   56     240/ 12/ 14 1005.0F
SAXON HARBOR     1840   58     230/  5/  9 1004.7S
$$

LMZ867-665-643>646-232000-
LAKE MICHIGAN

STATION/POSITION TIME  TEMP    WIND        PRES    WAVE
                       AIR SEA DIR/SP/G            HT/PER
                 (UTC) (F)     (DEG/KT/KT) (MB)    (FT/S)
S GREEN BAY BUOY 1830   51 58  150/  4/  4 1007.9F
N MID LAKE BUOY  1750   53 57   90/  2/  4 1009.2F   0
NORTHPORT PIER   1840   53        CALM     1008.1F
KEWAUNEE LAKESHO 1830   53     260/  1/  2 1007.4F
SHEBOYGAN LAKESH 1800   50     350/  7/  7 1008.4F
PORT WASHINGTON  1830   55      20/  3/  5 1008.5F
MILWAUKEE LAKESH 1830   53     340/  5/  7   N/A
S MID LAKE BUOY  1750   54 59  360/ 16/ 17 1006.8F   3/ 4
KENOSHA   LAKESH 1800   52     310/  8/ 11 1007.8
$$

TC  - TEMPERATURE IN CELSIUS
VSB - VISIBILITY IN STATUTE MILES
WCI - WIND CHILL INDEX
HX  - HEAT INDEX





USA.gov is the U.S. government's official web portal to all federal, state and local government web resources and services.